Hailey, ID

9:09 PM MDT on April 24, 2017 (GMT -0600)
Friedman Memorial

Weather History for KSUN - March, 2013

Change the Weather History Date:

Sunday, March 17, 2013

  Actual Average Record
Temperature  
Mean Temperature 34 °F -  
Max Temperature 41 °F 47 °F 68 °F (2007)
Min Temperature 26 °F 25 °F 10 °F (2002)
Degree Days  
Heating Degree Days 32    
Moisture  
Dew Point 15 °F    
Average Humidity 50    
Maximum Humidity 81    
Minimum Humidity 24    
Precipitation  
Precipitation 0.00 in - - ()
Sea Level Pressure  
Sea Level Pressure 29.82 in    
Wind  
Wind Speed 10 mph (WNW)    
Max Wind Speed 26 mph    
Max Gust Speed 47 mph    
Visibility 10 miles    
Events Snow    
Averages and records for this station are not official NWS values.
T = Trace of Precipitation, MM = Missing Value Source: NWS Daily Summary

Daily Weather History Graph

Daily Weather History Graph

Search for Another Location

Airport or City:

Trip Planner

Search our weather history database for the weather conditions in past years. The results will help you decide how hot, cold, wet, or windy it might be!

Date:

Astronomy

Mar. 17, 2013 Rise Set
Actual Time 7:45 AM MDT 7:46 PM MDT
Civil Twilight 7:16 AM MDT 8:14 PM MDT
Nautical Twilight 6:43 AM MDT 8:48 PM MDT
Astronomical Twilight 6:09 AM MDT 9:22 PM MDT
Moon 10:51 AM MDT (3/17) 1:07 AM MDT (3/17)
Length of Visible Light 12h 58m
Length of Day
12h 01m
Waxing Crescent, 32% of the Moon is Illuminated
Mar 17
Waxing Crescent
Mar 19
First Quarter
Mar 27
Full
Apr 2
Last Quarter
Apr 10
New

Hourly Weather History & Observations

Time (MDT) Temp. Windchill Dew Point Humidity Pressure Visibility Wind Dir Wind Speed Gust Speed Precip Events Conditions
12:15 AM 41.0 °F 36.4 °F 28.4 °F 61% 29.79 in 10.0 mi SSW 6.9 mph - N/A   Overcast
12:35 AM 39.2 °F 32.0 °F 28.4 °F 65% 29.78 in 10.0 mi SSW 11.5 mph 16.1 mph N/A   Mostly Cloudy
12:55 AM 37.4 °F 31.4 °F 28.4 °F 70% 29.77 in 10.0 mi South 8.1 mph 20.7 mph N/A   Scattered Clouds
1:15 AM 37.4 °F 30.8 °F 30.2 °F 75% 29.76 in 10.0 mi South 9.2 mph 18.4 mph N/A   Scattered Clouds
1:35 AM 37.4 °F 32.1 °F 30.2 °F 75% 29.75 in 10.0 mi South 6.9 mph - N/A   Mostly Cloudy
1:55 AM 37.4 °F 34.9 °F 30.2 °F 75% 29.75 in 10.0 mi North 3.5 mph - N/A   Overcast
2:15 AM 35.6 °F - 30.2 °F 81% 29.75 in 10.0 mi Calm Calm - N/A   Scattered Clouds
2:35 AM 35.6 °F 30.7 °F 30.2 °F 81% 29.75 in 10.0 mi West 5.8 mph - N/A   Scattered Clouds
2:55 AM 35.6 °F 29.2 °F 26.6 °F 70% 29.75 in 10.0 mi West 8.1 mph - N/A   Scattered Clouds
3:15 AM 35.6 °F 29.2 °F 19.4 °F 52% 29.75 in 10.0 mi West 8.1 mph 17.3 mph N/A   Clear
3:35 AM 35.6 °F 26.6 °F 17.6 °F 48% 29.75 in 10.0 mi WNW 13.8 mph 21.9 mph N/A   Clear
3:55 AM 35.6 °F 28.0 °F 19.4 °F 52% 29.76 in 10.0 mi WNW 10.4 mph 32.2 mph N/A   Scattered Clouds
4:15 AM 35.6 °F 26.2 °F 17.6 °F 48% 29.75 in 10.0 mi NW 15.0 mph 21.9 mph N/A   Scattered Clouds
4:35 AM 35.6 °F 28.0 °F 19.4 °F 52% 29.75 in 10.0 mi West 10.4 mph 19.6 mph N/A   Scattered Clouds
4:55 AM 33.8 °F 25.3 °F 21.2 °F 60% 29.74 in 10.0 mi SW 11.5 mph 25.3 mph N/A   Scattered Clouds
5:15 AM 32.0 °F 27.5 °F 26.6 °F 80% 29.73 in 5.0 mi WSW 4.6 mph 16.1 mph N/A Snow Light Snow
5:55 AM 32.0 °F 18.6 °F 23.0 °F 69% 29.75 in 7.0 mi NW 25.3 mph 36.8 mph N/A Snow Light Snow
6:15 AM 32.0 °F 18.4 °F 10.4 °F 41% 29.75 in 10.0 mi WNW 26.5 mph 47.2 mph N/A   Clear
6:35 AM 32.0 °F 19.2 °F 14.0 °F 48% 29.76 in 10.0 mi NW 23.0 mph 29.9 mph N/A   Scattered Clouds
6:47 AM 30.2 °F 19.8 °F 12.2 °F 47% 29.76 in 10.0 mi WNW 13.8 mph 32.2 mph N/A   Scattered Clouds
6:55 AM 32.0 °F 20.1 °F 12.2 °F 44% 29.76 in 10.0 mi NNW 19.6 mph 27.6 mph N/A   Scattered Clouds
7:47 AM 28.4 °F 16.6 °F 8.6 °F 43% 29.78 in 10.0 mi West 16.1 mph 28.8 mph N/A   Scattered Clouds
8:47 AM 28.4 °F 19.1 °F 8.6 °F 43% 29.80 in 10.0 mi West 10.4 mph 19.6 mph N/A   Scattered Clouds
9:47 AM 30.2 °F 20.8 °F 3.2 °F 32% 29.83 in 10.0 mi West 11.5 mph 18.4 mph N/A   Partly Cloudy
10:47 AM 32.0 °F 20.5 °F 3.2 °F 30% 29.84 in 10.0 mi NW 18.4 mph 28.8 mph N/A   Partly Cloudy
11:47 AM 33.8 °F 24.8 °F 3.2 °F 28% 29.87 in 10.0 mi NNW 12.7 mph 21.9 mph N/A   Scattered Clouds
12:50 PM 35.6 °F 28.0 °F 3.2 °F 26% 29.90 in 10.0 mi NNW 10.4 mph 19.6 mph N/A   Scattered Clouds
2:50 PM 35.6 °F 28.6 °F 5.0 °F 28% 29.91 in 10.0 mi NW 9.2 mph 20.7 mph N/A   Scattered Clouds
3:47 PM 37.4 °F 28.5 °F 3.2 °F 24% 29.90 in 10.0 mi West 15.0 mph 20.7 mph N/A   Scattered Clouds
4:50 PM 37.4 °F 30.3 °F 3.2 °F 24% 29.90 in 10.0 mi West 10.4 mph - N/A   Scattered Clouds
5:47 PM 35.6 °F 25.5 °F 3.2 °F 26% 29.90 in 10.0 mi West 17.3 mph 25.3 mph N/A   Partly Cloudy
6:50 PM 35.6 °F 25.5 °F 5.0 °F 28% 29.92 in 10.0 mi West 17.3 mph 25.3 mph N/A   Clear
7:47 PM 33.8 °F 25.3 °F 6.8 °F 32% 29.93 in 10.0 mi West 11.5 mph - N/A   Clear
8:47 PM 32.0 °F - 6.8 °F 35% 29.94 in 10.0 mi Calm Calm - N/A   Clear
9:47 PM 30.2 °F - 8.6 °F 40% 29.95 in 10.0 mi Calm Calm - N/A   Clear
10:47 PM 26.6 °F - 10.4 °F 51% 29.96 in 10.0 mi Calm Calm - N/A   Clear
11:15 PM 26.6 °F 21.2 °F 12.2 °F 55% 29.96 in 10.0 mi North 4.6 mph - N/A   Clear
11:35 PM 26.6 °F 21.2 °F 10.4 °F 51% 29.97 in 10.0 mi North 4.6 mph - N/A   Clear
11:55 PM 26.6 °F 21.2 °F 10.4 °F 51% 29.97 in 10.0 mi North 4.6 mph - N/A   Clear